Preview of NWS' New Version of Forecast
This preview is not operational and should not be used for support decisions.

Terminal Aerodrome Forecast (TAF)

Issued by National Weather Service (NWS)

                            
000
FTUS42 KKEY 161740
TAFMTH
TAF
KMTH 161740Z 1618/1718 35006KT P6SM FEW035
     FM170400 02008G16KT P6SM FEW025 SCT040=